Terug naar catalogus

QIANFAN-5

ActiefCommunicatiePO
NORAD 60383·PAYLOAD·🇨🇳 China

Gelanceerd Aug 6, 2024 vanaf Taiyuan Satellite Launch Center

Loading…

Volgende Passages (komende 24 uur)

TLE

VersSource: Space-Track

Epoch: Sep 14, 2026, 13:33 UTC

1 60383U 24140E   26257.56475422  .00000007  00000-0 -82294-5 0  9996
2 60383  88.9643 270.5828 0016827 129.5752 230.6888 13.51031181104540

Volg QIANFAN-5 in realtime met AllMySat

Download on the App Store